Location: Marcé
(47.5801°N, 0.3280°W)
Time: 02:40:50
(UTC+01:00)

Courier 1B - Pass Details

Date: 03 December 2021
Orbit: 962 x 1209 km, 28.3° (Epoch: 26 January)

Event Time Altitude Azimuth Distance (km) Brightness Sun altitude
Rises 21:06:51 0° 243° (WSW) 3,883 11.3 -38.8°
Reaches altitude 10° 21:11:41 10° 215° (SW) 2,861 10.1 -39.6°
Enters shadow 21:12:33 11° 208° (SSW) 2,760 10.0 -39.8°
Maximum altitude 21:14:11 12° 194° (SSW) 2,669 - -40.1°
Drops below altitude 10° 21:16:40 10° 172° (S) 2,796 - -40.5°
Sets 21:21:15 0° 143° (SE) 3,695 - -41.2°
